323  
ASUS41 KRLX 220310  
RWRRLX  
WEST VIRGINIA REGIONAL WEATHER ROUNDUP  
NATIONAL WEATHER SERVICE CHARLESTON WV  
1100 PM EDT MON AUG 21 2017  
 
NOTE: "FAIR" INDICATES FEW OR NO CLOUDS BELOW 12,000 FEET WITH NO  
SIGNIFICANT WEATHER AND/OR S TO VISIBILITY
.  
 
WVZ003-220400-  
NORTHERN PANHANDLE OF WEST VIRGINIA  
 
CITY SKY/WX TMP DP RH WIND PRES REMARKS
 
WHEELING CLEAR 75 69 81 S8 30.12F  

 
 
WVZ009-220400-  
NORTHWEST WEST VIRGINIA  
 
CITY SKY/WX TMP DP RH WIND PRES REMARKS
 
PARKERSBURG CLEAR 74 71 91 SE6 30.14F  

 
 
WVZ006-220400-  
WESTERN WEST VIRGINIA  
 
CITY SKY/WX TMP DP RH WIND PRES REMARKS
 
HUNTINGTON PTCLDY 75 70 84 CALM 30.13S  

 
 
WVZ015-220400-  
WEST CENTRAL WEST VIRGINIA  
 
CITY SKY/WX TMP DP RH WIND PRES REMARKS
 
CHARLESTON CLOUDY 73 69 87 CALM 30.14F  

 
 
WVZ022-031-220400-  
NORTH CENTRAL WEST VIRGINIA  
 
CITY SKY/WX TMP DP RH WIND PRES REMARKS
 
CLARKSBURG PTCLDY 74 69 85 CALM 30.15F  
MORGANTOWN N/A 75 68 78 CALM 30.16F  

 
 
WVZ025-035-042-045-220400-  
SOUTHERN WEST VIRGINIA  
 
CITY SKY/WX TMP DP RH WIND PRES REMARKS
 
BECKLEY CLEAR 71 63 75 SE7 30.25F  
LOGAN N/A 73 72 94 CALM 30.19S  
BLUEFIELD CLEAR 72 62 71 CALM 30.29S  
LEWISBURG CLEAR 67 64 92 CALM 30.25F  

 
 
WVZ047-220400-  
NORTHERN MOUNTAINS OF WEST VIRGINIA  
 
CITY SKY/WX TMP DP RH WIND PRES REMARKS
 
ELKINS CLEAR 66 63 90 CALM 30.23S FOG  

 
 
WVZ052-220400-  
EASTERN PANHANDLE OF WEST VIRGINIA  
 
CITY SKY/WX TMP DP RH WIND PRES REMARKS
 
MARTINSBURG CLOUDY 74 70 87 SW3 30.12S  
PETERSBURG CLOUDY 71 70 96 CALM 30.16F  

 
 
 
CLICK HERE TO GO TO PREVIOUS BULLETINS.

The Nexlab WV Page
The Nexlab OH Page
The Nexlab KY Page
The Nexlab VA Page Main Text Page